Location: Beaurecueil
(43.5122°N, 5.5450°E)
Time: 16:57:36
(UTC+00:00)

Resurs 01 Rocket - Pass Details

Date: 18 September 2020
Orbit: 633 x 645 km, 98.0° (Epoch: 20 October)

Event Time Altitude Azimuth Distance (km) Brightness Sun altitude
Exits shadow 19:19:15 25° 64° (ENE) 1,304 2.8 -18.1°
Drops below altitude 10° 19:22:47 10° 12° (NNE) 2,051 4.3 -18.7°
Sets 19:25:17 0° 359° (N) 2,964 5.3 -19.1°
